Location: Bratislava
(48.1500°N, 17.1170°E)
Time: 21:39:02
(UTC+02:00)

Tiangong 2 - Visible Passes

Search period start: 17 July 2018 00:00
Search period end: 27 July 2018 00:00
Orbit: 386 x 394 km, 42.8° (Epoch: 17 July)

Date Brightness Start Highest point End Pass type
(mag) Time Alt. Az. Time Alt. Az. Time Alt. Az.
17 Jul 2.3 22:45:26 10° WSW 22:48:00 25° SSW 22:48:00 25° SSW visible
18 Jul 2.2 21:47:46 10° WSW 21:50:35 29° S 21:52:44 14° SE visible
18 Jul 3.8 23:25:01 10° WSW 23:25:02 10° WSW 23:25:02 10° WSW visible
19 Jul 2.7 22:27:01 10° WSW 22:29:24 19° SSW 22:29:45 19° S visible
20 Jul 2.5 21:29:14 10° WSW 21:31:53 24° SSW 21:34:28 10° SE visible
21 Jul 3.3 22:08:53 10° WSW 22:10:37 14° SSW 22:11:29 13° S visible
